Weather History for Whiteman AFB, MO

Change the Weather History Date:

Thursday, November 1, 2012

  Actual Average Record
Temperature  
Mean Temperature 52 °F -  
Max Temperature 71 °F 58 °F 78 °F (2000)
Min Temperature 35 °F 41 °F 26 °F (2006)
Degree Days  
Heating Degree Days 12    
Growing Degree Days 2 (Base 50)    
Moisture  
Dew Point 36 °F    
Average Humidity 71    
Maximum Humidity 93    
Minimum Humidity 35    
Precipitation  
Precipitation 0.00 in - - ()
Sea Level Pressure  
Sea Level Pressure 29.99 in    
Wind  
Wind Speed 4 mph (SW)    
Max Wind Speed 14 mph    
Max Gust Speed 21 mph    
Visibility 7 miles    
Events      
Averages and records for this station are not official NWS values.
T = Trace of Precipitation, MM = Missing Value Source: NWS Daily Summary

Daily Weather History Graph

Daily Weather History Graph

Search for Another Location

Airport:

Trip Planner

Search our weather history database for the weather conditions in past years. The results will help you decide how hot, cold, wet, or windy it might be!

Date:

Astronomy

Nov. 01, 2012 Rise Set
Actual Time 7:41 AM CDT 6:13 PM CDT
Civil Twilight 7:14 AM CDT 6:40 PM CDT
Nautical Twilight 6:42 AM CDT 7:12 PM CDT
Astronomical Twilight 6:11 AM CDT 7:43 PM CDT
Moon 8:12 PM CDT (11/1) 10:13 AM CDT (11/1)
Length of Visible Light 11h 26m
Length of Day
10h 31m
Waning Gibbous, 93% of the Moon is Illuminated
Nov 1
Waning Gibbous
Nov 6
Last Quarter
Nov 13
New
Nov 20
First Quarter
Nov 28
Full

Hourly Weather History & Observations

Time (CDT) Temp. Windchill Dew Point Humidity Pressure Visibility Wind Dir Wind Speed Gust Speed Precip Events Conditions
12:55 AM 37.6 °F 35.1 °F 32.5 °F 82% 30.02 in 10.0 mi SSW 3.5 mph - N/A   Clear
1:55 AM 37.9 °F 34.4 °F 31.5 °F 77% 30.02 in 10.0 mi SSW 4.6 mph - N/A   Clear
2:15 AM 35.6 °F - 32.0 °F 87% 30.02 in 2.5 mi Calm Calm - N/A   Haze
2:16 AM 35.6 °F - 32.0 °F 87% 30.02 in 2.5 mi Calm Calm - N/A   Haze
2:28 AM 35.6 °F - 32.0 °F 87% 30.02 in 1.8 mi Calm Calm - N/A   Clear
2:34 AM 37.4 °F - 32.0 °F 81% 30.02 in 1.5 mi Calm Calm - N/A   Haze
2:35 AM 37.4 °F - 32.0 °F 81% 30.02 in 1.2 mi Calm Calm - N/A   Haze
2:43 AM 37.4 °F - 32.0 °F 81% 30.02 in 1.8 mi Calm Calm - N/A   Haze
2:44 AM 37.4 °F - 32.0 °F 81% 30.02 in 2.0 mi Calm Calm - N/A   Haze
2:55 AM 36.9 °F - 31.3 °F 80% 30.02 in 5.0 mi Calm Calm - N/A   Haze
3:15 AM 37.4 °F - 32.0 °F 81% 30.02 in 1.8 mi Calm Calm - N/A   Haze
3:16 AM 37.4 °F - 32.0 °F 81% 30.02 in 1.8 mi Calm Calm - N/A   Haze
3:25 AM 35.6 °F - 32.0 °F 87% 30.02 in 1.8 mi Calm Calm - N/A   Haze
3:26 AM 35.6 °F - 32.0 °F 87% 30.02 in 2.0 mi Calm Calm - N/A   Haze
3:55 AM 36.1 °F - 31.6 °F 84% 30.02 in 10.0 mi Calm Calm - N/A   Clear
4:55 AM 35.4 °F - 31.3 °F 85% 30.01 in 10.0 mi Calm Calm - N/A   Clear
5:55 AM 35.8 °F - 31.1 °F 83% 30.01 in 10.0 mi Calm Calm - N/A   Clear
6:55 AM 36.7 °F 32.0 °F 32.0 °F 83% 30.02 in 10.0 mi South 5.8 mph - N/A   Clear
7:55 AM 35.1 °F 29.3 °F 32.7 °F 91% 30.02 in 10.0 mi SSW 6.9 mph - N/A   Clear
8:16 AM 37.4 °F 32.1 °F 33.8 °F 87% 30.02 in 0.8 mi SSW 6.9 mph - N/A   Clear
8:25 AM 37.4 °F 32.1 °F 35.6 °F 93% 30.02 in 0.8 mi SSW 6.9 mph - N/A   Clear
8:26 AM 37.4 °F 32.1 °F 35.6 °F 93% 30.02 in 1.0 mi SSW 6.9 mph - N/A   Clear
8:38 AM 39.2 °F 34.2 °F 35.6 °F 87% 30.02 in 10.0 mi SSW 6.9 mph - N/A   Unknown
8:55 AM 40.6 °F 36.0 °F 37.6 °F 89% 30.03 in 10.0 mi SSW 6.9 mph - N/A   Clear
9:55 AM 52.2 °F - 38.3 °F 59% 30.02 in 10.0 mi SW 9.2 mph - N/A   Clear
10:55 AM 57.7 °F - 39.2 °F 50% 30.01 in 10.0 mi SW 8.1 mph - N/A   Clear
11:55 AM 63.0 °F - 39.9 °F 43% 29.99 in 10.0 mi SW 6.9 mph - N/A   Clear
12:55 PM 66.0 °F - 40.6 °F 39% 29.96 in 10.0 mi SW 9.2 mph - N/A   Clear
1:55 PM 68.7 °F - 42.1 °F 38% 29.93 in 10.0 mi SW 11.5 mph - N/A   Partly Cloudy
2:55 PM 70.3 °F - 42.1 °F 36% 29.89 in 10.0 mi SW 13.8 mph 20.7 mph N/A   Partly Cloudy
3:55 PM 70.7 °F - 43.0 °F 37% 29.89 in 10.0 mi WSW 11.5 mph 20.7 mph N/A   Partly Cloudy
4:55 PM 70.9 °F - 41.7 °F 35% 29.88 in 10.0 mi WSW 10.4 mph - N/A   Partly Cloudy
5:55 PM 67.6 °F - 42.4 °F 40% 29.87 in 10.0 mi WSW 8.1 mph - N/A   Partly Cloudy
6:55 PM 63.9 °F - 42.4 °F 46% 29.90 in 10.0 mi NW 9.2 mph - N/A   Partly Cloudy
7:55 PM 60.3 °F - 42.4 °F 52% 29.92 in 10.0 mi NW 8.1 mph - N/A   Partly Cloudy
8:55 PM 58.3 °F - 42.4 °F 56% 29.92 in 10.0 mi WNW 6.9 mph - N/A   Scattered Clouds
9:55 PM 54.7 °F - 42.3 °F 63% 29.93 in 10.0 mi NNW 5.8 mph - N/A   Scattered Clouds
10:55 PM 52.5 °F - 42.4 °F 69% 29.95 in 10.0 mi North 6.9 mph - N/A   Mostly Cloudy
11:02 PM 51.8 °F - 42.8 °F 71% 29.95 in 6.0 mi North 4.6 mph - N/A   Haze
11:55 PM 48.7 °F - 41.7 °F 77% 29.95 in 10.0 mi NNE 5.8 mph - N/A   Clear